Home > Weather > Regina > Past weeks

Flag for Canada Weather for the Past 2 Weeks in Regina, Saskatchewan, Canada

Now
23 °F

Overcast.


Feels Like: 13 °F
Forecast: 27 / 37 °F
Wind: 9 mph from South

Location: Regina Weather Station

Current Time: Feb 6, 2016 at 3:34:56 AM

Latest Report: Feb 6, 2016 at 3:00 AM


Visibility: 15 mi

Pressure: 29.77 "Hg (27.66 "Hg at 577m altitude)

Humidity: 93%

Dew point: 21 °F

Location of ReginaLocation

Historic Weather in Regina — Graph

°F

Regina Temperature Yesterday

Maximum temperature yesterday: 37 °F (at 3:00 PM)
Minimum temperature yesterday: 5 °F (at 8:00 AM)
Average temperature yesterday: 19 °F

High & Low Weather Summary for the Past Weeks

 TemperatureHumidityPressure
High39 °F (Jan 29, 12:00 PM)100% (Jan 24, 7:00 AM)30.28 "Hg (Jan 24, 7:00 AM)
Low3 °F (Jan 22, 2:02 AM)60% (Feb 5, 3:00 PM)29.36 "Hg (Jan 29, 1:00 AM)
Average22 °F87%29.93 "Hg
* Reported Jan 22 2:02 AM — Feb 6 2:00 AM, Regina, Weather by CustomWeather, © 2016

Note: Actual official high and low records may vary slightly from our data, if they occured in-between our weather recording intervals... More about our weather records

Advertising

Regina Weather History for the Previous 24 Hours

 ConditionsComfort  
Time TempWeatherWind HumidityBarometerVisibility
2:00 AM
Sat, Feb 6
21 °FMostly cloudy.8 mph93%29.80 "Hg15 mi
1:00 AM21 °FOvercast.9 mph93%29.83 "Hg15 mi
12:00 AM21 °FPartly cloudy.9 mph93%29.87 "Hg15 mi
11:00 PM
Fri, Feb 5
23 °FPassing clouds.9 mph86%29.90 "Hg15 mi
10:00 PM23 °FPassing clouds.9 mph86%29.95 "Hg15 mi
9:00 PM23 °FPassing clouds.9 mph86%29.99 "Hg15 mi
8:00 PM25 °FPassing clouds.12 mph80%30.02 "Hg15 mi
7:00 PM27 °FPassing clouds.9 mph80%30.03 "Hg15 mi
6:00 PM30 °FPassing clouds.9 mph80%30.03 "Hg15 mi
5:00 PM36 °FScattered clouds.8 mph70%30.05 "Hg15 mi
4:00 PM37 °FScattered clouds.8 mph65%30.06 "Hg15 mi
3:00 PM37 °FScattered clouds.9 mph60%30.08 "Hg15 mi
2:00 PM34 °FScattered clouds.9 mph65%30.11 "Hg15 mi
1:00 PM30 °FScattered clouds.7 mph69%30.15 "Hg15 mi
12:00 PM23 °FScattered clouds.6 mph80%30.18 "Hg15 mi
11:00 AM18 °FPassing clouds.5 mph93%30.19 "Hg15 mi
10:00 AM12 °FScattered clouds.3 mph92%30.20 "Hg15 mi
9:00 AM7 °FFrigid.9 mph92%30.21 "Hg10 mi
8:00 AM5 °FPassing clouds.9 mph92%30.23 "Hg15 mi
7:00 AM9 °FPassing clouds.6 mph92%30.23 "Hg12 mi
6:45 AM9 °FPassing clouds.6 mph92%30.23 "Hg15 mi
6:00 AM9 °FPassing clouds.7 mph92%30.23 "Hg15 mi
5:00 AM12 °FMostly cloudy.7 mph92%30.23 "Hg15 mi
4:00 AM12 °FOvercast.2 mph92%30.22 "Hg15 mi
3:00 AM12 °FOvercast.5 mph92%30.24 "Hg15 mi
Weather by CustomWeather, © 2016

See weather overviewHow to use our weather pages